Location: Bois de la Silve
(44.4667°N, 6.7833°E)
Time: 04:13:13
(UTC+00:00)

Cosmos 1459 Rocket - Pass Details

Date: 14 July 2020
Orbit: 938 x 999 km, 83.0° (Epoch: 06 August)

Event Time Altitude Azimuth Distance (km) Brightness Sun altitude
Exits shadow 00:52:48 39° 173° (S) 1,375 4.3 -21.8°
Maximum altitude 00:55:10 77° 95° (E) 977 4.0 -21.6°
Drops below altitude 10° 01:01:20 10° 11° (N) 2,702 7.5 -21.3°
Sets 01:03:51 0° 10° (N) 3,662 8.5 -21.1°
